Flag for Germany Weather past 2 weeks in Bitterfeld-Wolfen, Saxony-Anhalt, Germany

Now
59 °F

Scattered clouds.


Feels Like: 58 °F
Forecast: 48 / 71 °F
Wind: 7 mph from West

Location: Leipzig-Schkeuditz

Current Time: Aug 20, 2014 at 8:41:16 PM

Latest Report: Aug 20, 2014 at 7:50 PM


Visibility: N/A

Pressure: 29.98 "Hg

Humidity: 59%

Dew point: 45 °F

Location of Bitterfeld-WolfenLocation

Historic Weather in Bitterfeld-Wolfen — Graph

°F

Bitterfeld-Wolfen temperature yesterday

Maximum temperature yesterday: 70 °F (at 3:50 PM)
Minimum temperature yesterday: 52 °F (at 5:50 AM)
Average temperature yesterday: 59 °F

Past Weeks' High & Low Weather Summary

 TemperatureHumidityPressure
High84 °F (Aug 10, 3:20 PM)100% (Aug 6, 2:50 AM)30.09 "Hg (Aug 6, 2:50 AM)
Low48 °F (Aug 20, 3:50 AM)31% (Aug 12, 5:20 PM)29.62 "Hg (Aug 13, 6:50 PM)
Average64 °F72%29.88 "Hg
* Reported Aug 5 7:20 PM — Aug 20 7:20 PM, Bitterfeld-Wolfen, Weather by CustomWeather, © 2014

Note: Actual official high and low records may vary slightly from our data, if they occured in-between our weather recording intervals... More about our weather records

Advertising

Bitterfeld-Wolfen weather history for previous 24 hours

 ConditionsComfort  
Time TempWeatherWind HumidityBarometerVisibility
7:20 PM
Aug 20
61 °FScattered clouds.7 mph55%29.98 "HgN/A
6:50 PM63 °FSunny.9 mph49%29.98 "Hg10 mi
6:20 PM63 °FSunny.10 mph49%29.98 "Hg10 mi
5:50 PM64 °FSunny.12 mph49%29.98 "Hg10 mi
5:20 PM64 °FScattered clouds.10 mph52%29.98 "HgN/A
4:50 PM64 °FScattered clouds.15 mph46%29.98 "HgN/A
4:20 PM63 °FScattered clouds.13 mph52%29.98 "HgN/A
3:50 PM64 °FScattered clouds.13 mph52%29.98 "HgN/A
3:20 PM63 °FScattered clouds.13 mph52%29.98 "HgN/A
2:50 PM63 °FScattered clouds.16 mph52%29.98 "HgN/A
2:20 PM64 °FScattered clouds.14 mph49%29.98 "HgN/A
1:50 PM61 °FScattered clouds.16 mph59%29.98 "HgN/A
1:20 PM61 °FScattered clouds.15 mph59%30.01 "HgN/A
12:50 PM61 °FScattered clouds.13 mph55%30.01 "HgN/A
12:20 PM63 °FBroken clouds.14 mph59%30.01 "HgN/A
11:50 AM61 °FPartly sunny.15 mph63%30.01 "HgN/A
11:20 AM59 °FPartly sunny.17 mph63%30.01 "HgN/A
10:50 AM59 °FPartly sunny.16 mph68%30.01 "HgN/A
10:20 AM57 °FScattered clouds.18 mph67%29.98 "HgN/A
9:50 AM57 °FScattered clouds.18 mph67%29.98 "HgN/A
9:20 AM55 °FPassing clouds.18 mph72%29.98 "HgN/A
8:50 AM55 °FSunny.18 mph72%29.98 "Hg10 mi
8:20 AM54 °FSunny.17 mph77%29.98 "Hg10 mi
7:50 AM52 °FSunny.16 mph82%29.95 "Hg10 mi
7:20 AM50 °FSunny.14 mph88%29.95 "Hg10 mi
6:50 AM48 °FClear.12 mph94%29.95 "Hg10 mi
6:20 AM48 °FClear.14 mph87%29.95 "Hg10 mi
5:50 AM48 °FClear.12 mph94%29.95 "Hg10 mi
5:20 AM48 °FClear.10 mph94%29.95 "Hg10 mi
4:50 AM48 °FClear.9 mph94%29.95 "Hg10 mi
4:20 AM48 °FClear.12 mph94%29.92 "Hg10 mi
3:50 AM48 °FClear.9 mph94%29.92 "Hg10 mi
3:20 AM50 °FClear.12 mph88%29.92 "Hg10 mi
2:50 AM50 °FClear.10 mph88%29.92 "Hg10 mi
2:20 AM50 °FClear.13 mph94%29.92 "Hg10 mi
1:50 AM50 °FClear.12 mph88%29.92 "Hg10 mi
1:20 AM52 °FClear.16 mph88%29.92 "Hg10 mi
12:50 AM54 °FClear.14 mph88%29.89 "Hg10 mi
12:20 AM55 °FClear.12 mph88%29.89 "Hg10 mi
11:50 PM
Aug 19
55 °FClear.13 mph94%29.89 "Hg10 mi
11:20 PM55 °FClear.12 mph94%29.89 "Hg10 mi
10:50 PM54 °FClear.8 mph94%29.89 "Hg10 mi
10:20 PM54 °FClear.8 mph94%29.89 "Hg10 mi
9:50 PM55 °FLight rain. Passing clouds.8 mph88%29.89 "HgN/A
9:20 PM55 °FRain. Broken clouds.1 mph88%29.89 "HgN/A
8:50 PM55 °FLight rain. Partly sunny.6 mph88%29.89 "HgN/A
8:20 PM55 °FRain. Broken clouds.8 mph88%29.86 "Hg6 mi
Weather by CustomWeather, © 2014

See weather overviewHow to use our weather pages